Showing default

QIANFAN-67, 62797

Orbit data source: Space-Track

QIANFAN-67, 62797 is a Chinese payload satellite in LEO that was launched on Thu, 23 Jan 2025 UTC via a CHANG ZHENG 6A launch vehicle from the Taiyaun Space Center, China (TSC). Payload-class satellites include a variety of spacecraft equipped with specific instruments for various scientific and technological missions. These include communications satellites like Starlink; space stations such as the ISS; scientific satellites like the Hubble; Earth observation satellites from companies like Planet Labs, Umbra, and HawkEye 360; GPS; miniature CubeSats for education and research; and military/defense satellites.

Loading next visibility...
Identifier
62797, 2025-016N
Orbit
LEO
Country
Flag of CNCN / PRC
Related business
Manufacturer
SECM
Mission
Operational Commercial Communications
Bus & Motor
QIANFAN, Unknown motor
Mass
267 kg wet, ~267 kg dry
Launch date (UTC)
2025-01-23 (1 year ago)
Launch vehicle
CHANG ZHENG 6A
Launch site
Taiyaun Space Center, China (TSC)
Object type
Payload
Rocket body
Debris
Shape & HBR
Box + 1 Pan, 1.3 m
Radar Cross Section
13.200 m², Large (>1 m²)

Expand to show TLE details & history
Last TLE update: 9 hours ago

TLE from 9 hours ago
0 QIANFAN-67
1 62797U 25016N   26035.83014131  .00000121  00000-0  16835-3 0  9992
2 62797  88.9730  97.4655 0015369 181.8604 178.2493 13.50998192 54567
Epoch: 2026-02-04T19:55Z
TLE epoch observation values (Epoch: 2026-02-04T19:55:24.209Z)
Latitude
0.00004°
Longitude
23.62353°
Altitude
1,082.983 km
Speed
7.305 km/s
True Right ascension
06h 29m 51s
True Declination
0° 00' 00"
Sunlit
Object was in full shadow at epoch
Visualization orbit readout
Latitude
Unknown
Longitude
Unknown
Altitude
Unknown
Speed
Unknown
Apparent Right ascension
Unknown
Apparent Declination
Unknown
Sunlit
N/A
Visualization observer readout
Local Sidereal Time
06:44:13
Azimuth
Unknown
Elevation
Unknown
Doppler factor
Unknown
Orbital elements
Apogee altitude
1,077.08 km
Perigee altitude
1,054.199 km
Semi-major axis
7,443.776 km
Eccentricity
0.00154
Inclination
88.973°
RAAN
97.4655°
Arg. of periapsis
181.8604°
True anomaly
178.25467°
Mean anomaly
178.2493°
Eccentric anomaly
178.25199°
Mean motion
3.37951 °/min
Orbital period
106.52 mins
BSTAR
0.00016835
Loading maneuver chart data...
Computing Atmospheric mass density...
Loading historical data...
Loading historical data...
Loading historical data...
Loading historical data...
Loading historical data...
Loading historical data...
Loading historical data...

Documentation

Showing up to 5 results
|